Location: Peebles
(55.6412°N, 3.1714°W)
Time: 11:48:12
(UTC+01:00)

FENGYUN 1C DEB - Pass Details

Date: 10 July 2022
Orbit: 580 x 1160 km, 99.3° (Epoch: 14 August)

Event Time Altitude Azimuth Distance (km) Brightness Sun altitude
Exits shadow 03:11:20 - 243° (WSW) 3,368 ? -8.5°
Reaches altitude 10° 03:15:05 10° 272° (W) 2,835 ? -8.2°
Maximum altitude 03:16:43 11° 287° (WNW) 2,808 ? -8.1°
Drops below altitude 10° 03:18:23 10° 301° (WNW) 2,923 ? -8.0°
Sets 03:23:46 0° 336° (NNW) 3,991 ? -7.7°
